Previsão horária em Cértegui

Hoje, 30 Julho, Sexta-feira

Tempo Temperatura Precipitação Vento Pressão Humidade
00:00 +23°C° 0.1 mm 0 m/s 750 mmHg 97%
01:00 +23°C° 0.1 mm 0 m/s 750 mmHg 97%
02:00 +23°C° 0 mm 0 m/s 750 mmHg 97%
03:00 +23°C° 0 mm 0 m/s 750 mmHg 98%
04:00 +23°C° 0 mm 0 m/s 749 mmHg 98%
05:00 +23°C° 0 mm 0 m/s 750 mmHg 97%
06:00 +23°C° 0 mm 0 m/s 750 mmHg 97%
07:00 +23°C° 0 mm 0 m/s 751 mmHg 96%
08:00 +25°C° 0.1 mm 0 m/s 751 mmHg 88%
09:00 +27°C° 0.1 mm 0 m/s 751 mmHg 79%
10:00 +29°C° 0.1 mm 0 m/s 751 mmHg 71%
11:00 +32°C° 0.7 mm 1 m/s 750 mmHg 71%
12:00 +32°C° 0.7 mm 1 m/s 750 mmHg 71%
13:00 +32°C° 0.7 mm 1 m/s 749 mmHg 72%
14:00 +31°C° 1.7 mm 1 m/s 749 mmHg 76%
15:00 +30°C° 1.7 mm 1 m/s 748 mmHg 81%
16:00 +30°C° 1.7 mm 1 m/s 748 mmHg 85%
17:00 +29°C° 0.6 mm 1 m/s 748 mmHg 89%
18:00 +28°C° 0.6 mm 1 m/s 749 mmHg 92%
19:00 +25°C° 0.6 mm 0 m/s 749 mmHg 96%
20:00 +24°C° 0.2 mm 0 m/s 750 mmHg 96%
21:00 +24°C° 0.2 mm 0 m/s 750 mmHg 97%
22:00 +24°C° 0.2 mm 0 m/s 750 mmHg 97%
23:00 +24°C° 0 mm 0 m/s 750 mmHg 97%

Amanhã, 31 Julho, Sábado

Tempo Temperatura Precipitação Vento Pressão Humidade
00:00 +24°C° 0 mm 0 m/s 750 mmHg 97%
01:00 +24°C° 0 mm 0 m/s 750 mmHg 98%
02:00 +24°C° 0.1 mm 0 m/s 750 mmHg 98%
03:00 +24°C° 0.1 mm 0 m/s 750 mmHg 97%
04:00 +24°C° 0.1 mm 0 m/s 750 mmHg 97%
05:00 +24°C° 0 mm 0 m/s 750 mmHg 97%
06:00 +24°C° 0 mm 0 m/s 750 mmHg 97%
07:00 +24°C° 0 mm 0 m/s 750 mmHg 97%
08:00 +26°C° 0.1 mm 0 m/s 750 mmHg 89%
09:00 +27°C° 0.1 mm 0 m/s 750 mmHg 82%
10:00 +29°C° 0.1 mm 0 m/s 750 mmHg 74%
11:00 +32°C° 0.1 mm 1 m/s 750 mmHg 68%
12:00 +33°C° 0.1 mm 1 m/s 749 mmHg 62%
13:00 +35°C° 0.1 mm 1 m/s 748 mmHg 56%
14:00 +34°C° 0.4 mm 1 m/s 748 mmHg 63%
15:00 +32°C° 0.4 mm 1 m/s 748 mmHg 69%
16:00 +31°C° 0.4 mm 1 m/s 747 mmHg 75%
17:00 +30°C° 1.6 mm 1 m/s 748 mmHg 82%
18:00 +28°C° 1.6 mm 1 m/s 748 mmHg 88%
19:00 +27°C° 1.6 mm 1 m/s 749 mmHg 94%
20:00 +27°C° 1.5 mm 1 m/s 750 mmHg 95%
21:00 +24°C° 1.5 mm 0 m/s 750 mmHg 96%
22:00 +24°C° 1.5 mm 0 m/s 751 mmHg 97%
23:00 +24°C° 0.5 mm 0 m/s 751 mmHg 97%

Depois de amanhã, 1 Agosto, Domingo

Tempo Temperatura Precipitação Vento Pressão Humidade
00:00 +24°C° 0.5 mm 0 m/s 750 mmHg 97%
01:00 +24°C° 0.5 mm 0 m/s 750 mmHg 97%
02:00 +24°C° 0.2 mm 0 m/s 750 mmHg 97%
03:00 +24°C° 0.2 mm 0 m/s 750 mmHg 97%
04:00 +24°C° 0.2 mm 0 m/s 750 mmHg 97%
05:00 +24°C° 0.9 mm 0 m/s 750 mmHg 97%
06:00 +24°C° 0.9 mm 0 m/s 751 mmHg 97%
07:00 +24°C° 0.9 mm 0 m/s 751 mmHg 97%
08:00 +25°C° 0.4 mm 0 m/s 751 mmHg 92%
09:00 +28°C° 0.4 mm 1 m/s 751 mmHg 88%
10:00 +29°C° 0.4 mm 1 m/s 751 mmHg 83%
11:00 +30°C° 0.6 mm 1 m/s 751 mmHg 79%
12:00 +31°C° 0.6 mm 2 m/s 750 mmHg 75%
13:00 +32°C° 0.6 mm 2 m/s 750 mmHg 71%
14:00 +31°C° 2.3 mm 2 m/s 749 mmHg 78%
15:00 +30°C° 2.3 mm 2 m/s 749 mmHg 84%
16:00 +29°C° 2.3 mm 1 m/s 749 mmHg 90%
17:00 +28°C° 3.4 mm 1 m/s 749 mmHg 92%
18:00 +27°C° 3.4 mm 1 m/s 750 mmHg 94%
19:00 +26°C° 3.4 mm 1 m/s 750 mmHg 96%
20:00 +26°C° 1.8 mm 1 m/s 751 mmHg 96%
21:00 +26°C° 1.8 mm 1 m/s 751 mmHg 97%
22:00 +23°C° 1.8 mm 0 m/s 752 mmHg 97%
23:00 +23°C° 0.3 mm 0 m/s 752 mmHg 97%

2 Agosto, Segunda-feira

Tempo Temperatura Precipitação Vento Pressão Humidade
00:00 +23°C° 0.3 mm 0 m/s 751 mmHg 98%
01:00 +23°C° 0.3 mm 0 m/s 751 mmHg 98%
02:00 +23°C° 0.3 mm 0 m/s 751 mmHg 98%
03:00 +23°C° 0.3 mm 0 m/s 751 mmHg 98%
04:00 +23°C° 0.3 mm 0 m/s 751 mmHg 98%
05:00 +23°C° 0.2 mm 0 m/s 751 mmHg 98%
06:00 +23°C° 0.2 mm 0 m/s 751 mmHg 98%
07:00 +23°C° 0.2 mm 0 m/s 751 mmHg 98%
08:00 +25°C° 0.6 mm 0 m/s 752 mmHg 93%
09:00 +26°C° 0.6 mm 0 m/s 752 mmHg 89%
10:00 +27°C° 0.6 mm 0 m/s 752 mmHg 85%
11:00 +27°C° 1.4 mm 0 m/s 752 mmHg 84%
12:00 +30°C° 1.4 mm 1 m/s 751 mmHg 84%
13:00 +30°C° 1.4 mm 1 m/s 750 mmHg 83%
14:00 +29°C° 2.1 mm 1 m/s 750 mmHg 86%
15:00 +29°C° 2.1 mm 1 m/s 750 mmHg 89%
16:00 +28°C° 2.1 mm 1 m/s 749 mmHg 92%
17:00 +27°C° 3.6 mm 1 m/s 750 mmHg 94%
18:00 +26°C° 3.6 mm 1 m/s 750 mmHg 95%
19:00 +25°C° 3.6 mm 1 m/s 751 mmHg 97%
20:00 +25°C° 3.2 mm 1 m/s 751 mmHg 98%
21:00 +23°C° 3.2 mm 0 m/s 751 mmHg 98%
22:00 +23°C° 3.2 mm 0 m/s 752 mmHg 99%
23:00 +23°C° 0.8 mm 0 m/s 752 mmHg 98%

3 Agosto, Terça-feira

Tempo Temperatura Precipitação Vento Pressão Humidade
00:00 +23°C° 0.8 mm 0 m/s 752 mmHg 98%
01:00 +23°C° 0.8 mm 0 m/s 751 mmHg 98%
02:00 +22°C° 0.1 mm 0 m/s 751 mmHg 98%
03:00 +22°C° 0.1 mm 0 m/s 751 mmHg 98%
04:00 +22°C° 0.1 mm 0 m/s 751 mmHg 98%
05:00 +22°C° 0 mm 0 m/s 751 mmHg 98%
06:00 +22°C° 0 mm 0 m/s 751 mmHg 97%
07:00 +23°C° 0 mm 0 m/s 752 mmHg 97%
08:00 +24°C° 0 mm 0 m/s 752 mmHg 89%
09:00 +26°C° 0 mm 0 m/s 752 mmHg 81%
10:00 +28°C° 0 mm 0 m/s 752 mmHg 74%
11:00 +31°C° 0.2 mm 1 m/s 751 mmHg 71%
12:00 +32°C° 0.2 mm 1 m/s 751 mmHg 68%
13:00 +32°C° 0.2 mm 1 m/s 750 mmHg 65%
14:00 +31°C° 1.5 mm 1 m/s 750 mmHg 72%
15:00 +30°C° 1.5 mm 1 m/s 750 mmHg 80%
16:00 +29°C° 1.5 mm 1 m/s 749 mmHg 87%
17:00 +28°C° 2.1 mm 1 m/s 750 mmHg 90%
18:00 +25°C° 2.1 mm 0 m/s 750 mmHg 93%
19:00 +24°C° 2.1 mm 0 m/s 751 mmHg 95%
20:00 +23°C° 1.5 mm 0 m/s 751 mmHg 96%
21:00 +23°C° 1.5 mm 0 m/s 752 mmHg 96%
22:00 +23°C° 1.5 mm 0 m/s 752 mmHg 97%
23:00 +23°C° 0.5 mm 0 m/s 752 mmHg 97%

4 Agosto, Quarta-feira

Tempo Temperatura Precipitação Vento Pressão Humidade
00:00 +23°C° 0.5 mm 0 m/s 752 mmHg 98%
01:00 +23°C° 0.5 mm 0 m/s 752 mmHg 98%
02:00 +23°C° 0.5 mm 0 m/s 751 mmHg 98%
03:00 +22°C° 0.5 mm 0 m/s 751 mmHg 98%
04:00 +22°C° 0.5 mm 0 m/s 751 mmHg 98%
05:00 +22°C° 0 mm 0 m/s 751 mmHg 98%
06:00 +23°C° 0 mm 0 m/s 752 mmHg 97%
07:00 +23°C° 0 mm 0 m/s 752 mmHg 97%
08:00 +25°C° 0 mm 0 m/s 752 mmHg 89%
09:00 +27°C° 0 mm 0 m/s 752 mmHg 81%
10:00 +28°C° 0 mm 0 m/s 752 mmHg 74%
11:00 +31°C° 0.3 mm 1 m/s 752 mmHg 72%
12:00 +31°C° 0.3 mm 1 m/s 751 mmHg 69%
13:00 +32°C° 0.3 mm 1 m/s 751 mmHg 67%
14:00 +31°C° 1.4 mm 1 m/s 750 mmHg 73%
15:00 +30°C° 1.4 mm 1 m/s 750 mmHg 80%
16:00 +29°C° 1.4 mm 1 m/s 749 mmHg 86%
17:00 +28°C° 1.8 mm 1 m/s 750 mmHg 89%
18:00 +27°C° 1.8 mm 1 m/s 750 mmHg 92%
19:00 +24°C° 1.8 mm 0 m/s 751 mmHg 94%
20:00 +24°C° 0.5 mm 0 m/s 751 mmHg 95%
21:00 +24°C° 0.5 mm 0 m/s 752 mmHg 96%
22:00 +23°C° 0.5 mm 0 m/s 752 mmHg 97%
23:00 +23°C° 0.5 mm 0 m/s 752 mmHg 97%
Mostrar mais

Necessitamos do seu Consentimento

A Meteoprog e os seus Fornecedores de Serviços podem armazenar e aceder a dados pessoais como cookies, identificadores do dispositivo ou outras tecnologias semelhantes existentes no seu dispositivo e processar estes dados para personalizar conteúdos e anúncios, assim como funcionalidades nas redes sociais e análise de tráfego.

  • Armazenar e/ou aceder a informações no seu dispositivo

    Os cookies, identificadores do dispositivo ou outras informações podem ser armazenados ou acedidos no seu dispositivo, para os fins acima indicados.

  • Anúncios e conteúdos personalizados, medição de anúncios e conteúdos, dados sobre o público-alvo e desenvolvimento de produtos

    Os anúncios e os conteúdos podem ser personalizados com base num perfil. Podem ser adicionados dados adicionais para uma maior personalização dos anúncios e dos conteúdos. A eficácia dos anúncios e dos conteúdos pode ser medida. Podem ser obtidas informações sobre o público que visualizou os anúncios e os conteúdos. Estes dados podem ser usados para desenvolver ou melhorar sistemas, softwares ou a experiência do utilizador.

Ao clicar em "Eu concordo”, permitirá o uso de cookies, identificadores do dispositivo e web beacons mencionados ou outras tecnologias semelhantes. As configurações do navegador do seu dispositivo podem ser alteradas.

Para certos fins, podem ser invocados interesses legítimos ao invés de consentimento. Pode ler mais informação sobre este assunto na nossa Política de Privacidade e Cookies.